KG6SIB Weather Reports


time (UTC)temp
F
wind
direction
speed
knots
gust
knots
rain 1hr
in
rain 24hr
in
rain mn
in
humidity
%
barometer
mb
20260905204757 89 260 1.7 3.5 0.00 0.00 0.00 29 1020.8
20260905204258 88 223 0.0 9.6 0.00 0.00 0.00 28 1020.8
20260905203757 87 233 2.6 10.4 0.00 0.00 0.00 29 1020.7
20260905203258 87 282 0.0 10.4 0.00 0.00 0.00 29 1020.7
20260905202757 87 267 2.6 10.4 0.00 0.00 0.00 30 1020.8
20260905201756 88 250 0.9 11.3 0.00 0.00 0.00 29 1021.1
20260905201257 88 233 6.1 10.4 0.00 0.00 0.00 29 1021.1
20260905200756 88 242 1.7 10.4 0.00 0.00 0.00 29 1021.0
20260905195757 89 246 6.1 11.3 0.00 0.00 0.00 28 1018.3
20260905195256 90 225 7.8 13.0 0.00 0.00 0.00 27 1018.1
20260905194757 90 209 5.2 13.0 0.00 0.00 0.00 27 1018.2
20260905194256 89 240 2.6 8.7 0.00 0.00 0.00 28 1018.1
20260905193756 89 197 1.7 10.4 0.00 0.00 0.00 28 1018.3
20260905193256 88 217 1.7 10.4 0.00 0.00 0.00 28 1018.2
20260905192756 89 260 3.5 10.4 0.00 0.00 0.00 27 1018.6
20260905192256 88 190 2.6 10.4 0.00 0.00 0.00 28 1018.5
20260905191256 90 246 9.6 12.2 0.00 0.00 0.00 25 1018.8
20260905190756 90 238 1.7 12.2 0.00 0.00 0.00 25 1018.8
20260905190256 89 217 6.1 12.2 0.00 0.00 0.00 26 1018.9
20260905185756 89 212 3.5 9.6 0.00 0.00 0.00 26 1018.9
20260905185256 88 238 5.2 12.2 0.00 0.00 0.00 27 1019.0
20260905184256 88 240 8.7 13.0 0.00 0.00 0.00 27 1019.1
20260905183255 86 207 2.6 10.4 0.00 0.00 0.00 29 1018.8
20260905182255 84 254 7.0 13.0 0.00 0.00 0.00 31 1018.6
20260905181756 84 256 3.5 11.3 0.00 0.00 0.00 31 1018.6
20260905181256 84 213 2.6 11.3 0.00 0.00 0.00 31 1018.7
20260905180755 85 254 4.3 10.4 0.00 0.00 0.00 32 1018.6
20260905180255 86 244 0.0 10.4 0.00 0.00 0.00 31 1018.8
20260905175755 86 231 6.1 10.4 0.00 0.00 0.00 29 1018.7
20260905175255 86 232 5.2 10.4 0.00 0.00 0.00 30 1018.7
20260905174255 85 250 1.7 11.3 0.00 0.00 0.00 29 1018.4
20260905173254 85 243 5.2 12.2 0.00 0.00 0.00 30 1018.5
20260905172754 85 221 5.2 12.2 0.00 0.00 0.00 31 1018.5
20260905171756 85 256 6.1 13.0 0.00 0.00 0.00 28 1018.3
20260905171254 85 192 4.3 9.6 0.00 0.00 0.00 29 1018.2
20260905170754 85 236 5.2 12.2 0.00 0.00 0.00 26 1018.1
20260905170254 84 246 1.7 12.2 0.00 0.00 0.00 27 1018.1
20260905165754 83 238 7.8 12.2 0.00 0.00 0.00 27 1018.1
20260905165254 83 261 7.8 12.2 0.00 0.00 0.00 27 1018.1
20260905164254 83 205 1.7 9.6 0.00 0.00 0.00 28 1018.0
20260905163754 83 223 4.3 9.6 0.00 0.00 0.00 28 1018.0
20260905163255 83 240 5.2 7.8 0.00 0.00 0.00 27 1018.0
20260905162743 83 234 5.2 7.8 0.00 0.00 0.00 27 1018.1
20260905162254 82 272 6.1 7.8 0.00 0.00 0.00 24 1018.0
20260905161754 82 250 1.7 7.8 0.00 0.00 0.00 24 1018.0
20260905161253 81 249 2.6 3.5 0.00 0.00 0.00 24 1017.7
20260905160754 80 188 0.0 6.1 0.00 0.00 0.00 22 1017.7
20260905160254 80 248 2.6 7.0 0.00 0.00 0.00 22 1017.8
20260905155755 80 237 1.7 7.0 0.00 0.00 0.00 22 1017.8
20260905082244 54 75 6.1 7.0 0.00 0.00 0.00 49 1017.5
20260905081744 53 40 4.3 7.0 0.00 0.00 0.00 50 1017.4
20260905081244 53 49 3.5 7.0 0.00 0.00 0.00 51 1017.4
20260905080744 53 73 3.5 7.0 0.00 0.00 0.00 52 1017.4
20260905080244 53 50 4.3 7.0 0.00 0.00 0.00 53 1017.5
20260905075244 53 61 4.3 7.0 0.00 0.00 0.00 53 1017.4
20260905074744 53 77 6.1 7.0 0.00 0.00 0.00 53 1017.4
20260905074244 53 66 3.5 7.0 0.00 0.00 0.00 53 1017.4
20260905073744 53 69 2.6 7.0 0.00 0.00 0.00 53 1017.5
20260905073244 54 68 3.5 7.0 0.00 0.00 0.00 53 1017.7
20260905071744 53 76 6.1 7.0 0.00 0.00 0.00 54 1017.5
20260905070743 54 44 3.5 7.0 0.00 0.00 0.00 55 1017.6
20260905070244 54 80 2.6 7.0 0.00 0.00 0.00 54 1017.6
20260905065244 54 66 4.3 7.0 0.00 0.00 0.00 54 1017.4
20260905064744 54 80 3.5 7.0 0.00 0.00 0.00 54 1017.3
20260905064243 54 59 6.1 7.0 0.00 0.00 0.00 54 1017.3
20260905063743 54 43 4.3 6.1 0.00 0.00 0.00 54 1017.3
20260905063243 54 60 4.3 6.1 0.00 0.00 0.00 54 1017.4
20260905062743 54 43 5.2 6.1 0.00 0.00 0.00 54 1017.4
20260905062243 54 76 2.6 6.1 0.00 0.00 0.00 53 1017.4
20260905061743 55 71 4.3 7.0 0.00 0.00 0.00 53 1017.5
20260905060742 54 68 3.5 7.0 0.00 0.00 0.00 54 1017.3
20260905060242 55 42 4.3 7.0 0.00 0.00 0.00 54 1017.6
20260905055742 55 51 2.6 7.0 0.00 0.00 0.00 54 1017.3
20260905054742 55 70 4.3 6.1 0.00 0.00 0.00 54 1017.2
20260905053743 55 67 3.5 7.8 0.00 0.00 0.00 54 1017.3
20260905053242 55 68 7.0 7.8 0.00 0.00 0.00 54 1017.2
20260905052742 55 72 3.5 6.1 0.00 0.00 0.00 54 1017.2
20260905051743 55 61 2.6 7.0 0.00 0.00 0.00 55 1017.2
20260905050742 56 60 2.6 7.0 0.00 0.00 0.00 55 1017.2
20260905050242 56 63 3.5 7.0 0.00 0.00 0.00 56 1017.2
20260905045742 56 77 2.6 6.1 0.00 0.00 0.00 56 1016.9
20260905044742 56 51 2.6 6.1 0.00 0.00 0.00 57 1016.7
20260905044242 56 42 2.6 6.1 0.00 0.00 0.00 57 1016.7
20260905043742 56 35 3.5 6.1 0.00 0.00 0.00 57 1016.7
20260905043241 56 34 3.5 6.1 0.00 0.00 0.00 56 1016.6
20260905042741 56 61 3.5 7.0 0.00 0.00 0.00 56 1016.6
20260905042242 56 51 2.6 7.0 0.00 0.00 0.00 56 1016.5
20260905041741 56 75 1.7 7.0 0.00 0.00 0.00 57 1016.5
20260905040741 57 45 4.3 7.0 0.00 0.00 0.00 57 1016.5
20260905040241 57 92 2.6 7.0 0.00 0.00 0.00 57 1016.5
20260905035741 57 26 3.5 5.2 0.00 0.00 0.00 58 1016.3
20260905034741 57 46 1.7 5.2 0.00 0.00 0.00 57 1016.3
20260905034241 57 49 4.3 6.1 0.00 0.00 0.00 56 1016.3
20260905033741 58 38 3.5 6.1 0.00 0.00 0.00 56 1016.1
20260905033241 58 53 2.6 5.2 0.00 0.00 0.00 57 1016.2
20260905032241 59 36 3.5 4.3 0.00 0.00 0.00 55 1016.3
20260905031741 59 44 3.5 3.5 0.00 0.00 0.00 54 1016.1
20260905031241 60 64 2.6 3.5 0.00 0.00 0.00 54 1016.0
20260905030740 60 48 2.6 4.3 0.00 0.00 0.00 53 1016.0
20260905025740 61 65 2.6 4.3 0.00 0.00 0.00 51 1014.8
20260905025240 62 80 1.7 4.3 0.00 0.00 0.00 51 1014.9
20260905024741 63 65 2.6 4.3 0.00 0.00 0.00 51 1015.1
20260905024241 63 40 2.6 3.5 0.00 0.00 0.00 50 1015.0
20260905022240 67 227 0.0 0.9 0.00 0.00 0.00 46 1015.5
20260905021740 68 227 0.0 0.0 0.00 0.00 0.00 45 1015.5
20260905021240 68 227 0.0 0.9 0.00 0.00 0.00 45 1015.5
20260905020740 69 227 0.0 1.7 0.00 0.00 0.00 45 1015.8
20260905020240 70 227 0.0 1.7 0.00 0.00 0.00 44 1015.8
20260905015740 70 227 0.0 2.6 0.00 0.00 0.00 44 1014.1
20260905015239 71 227 0.0 3.5 0.00 0.00 0.00 43 1014.3
20260905014739 71 227 0.0 3.5 0.00 0.00 0.00 43 1014.3
20260905014239 72 224 0.0 3.5 0.00 0.00 0.00 42 1014.3
20260905013740 72 224 0.0 5.2 0.00 0.00 0.00 42 1014.4
20260905013239 73 224 3.5 5.2 0.00 0.00 0.00 42 1014.5
20260905012740 73 237 0.9 2.6 0.00 0.00 0.00 41 1014.4
20260905012240 73 238 0.0 2.6 0.00 0.00 0.00 41 1014.5
20260905011739 74 250 0.9 2.6 0.00 0.00 0.00 41 1014.4
20260905011239 74 231 0.0 7.0 0.00 0.00 0.00 40 1014.3
20260905010739 75 231 2.6 7.0 0.00 0.00 0.00 40 1014.7
20260905010239 75 238 0.0 3.5 0.00 0.00 0.00 39 1014.6
20260905005739 76 238 0.0 7.8 0.00 0.00 0.00 40 1014.6
20260905005239 76 252 0.9 7.8 0.00 0.00 0.00 39 1014.6
20260905004739 77 252 3.5 7.0 0.00 0.00 0.00 39 1014.7
20260905004238 77 184 1.7 6.1 0.00 0.00 0.00 38 1014.7
20260905003239 78 239 5.2 7.8 0.00 0.00 0.00 39 1014.9
20260905002739 78 226 2.6 10.4 0.00 0.00 0.00 38 1015.0
20260905002238 79 220 1.7 10.4 0.00 0.00 0.00 38 1015.0
20260905001739 79 236 3.5 7.8 0.00 0.00 0.00 38 1014.9
20260905001238 79 238 2.6 8.7 0.00 0.00 0.00 39 1014.9
20260905000739 79 234 2.6 9.6 0.00 0.00 0.00 39 1014.8
20260905000241 79 229 5.2 9.6 0.00 0.00 0.00 39 1015.0
20260904235738 80 242 4.3 9.6 0.00 0.00 0.00 39 1015.4
20260904235238 80 243 1.7 10.4 0.00 0.00 0.00 39 1015.4
20260904234738 80 234 8.7 10.4 0.00 0.00 0.00 38 1015.3
20260904233738 81 235 3.5 8.7 0.00 0.00 0.00 38 1015.2
20260904233237 81 254 6.1 8.7 0.00 0.00 0.00 38 1015.2
20260904232727 82 225 7.8 8.7 0.00 0.00 0.00 37 1015.4
20260904232238 82 247 1.7 8.7 0.00 0.00 0.00 37 1015.4
20260904231738 82 193 2.6 7.8 0.00 0.00 0.00 37 1015.4
20260904230738 82 245 7.0 10.4 0.00 0.00 0.00 37 1015.4
20260904230237 82 214 1.7 10.4 0.00 0.00 0.00 37 1015.6
20260904225738 81 234 3.5 10.4 0.00 0.00 0.00 37 1015.3
20260904225237 82 233 5.2 11.3 0.00 0.00 0.00 36 1015.5
20260904224738 83 234 10.4 12.2 0.00 0.00 0.00 36 1015.6
20260904224238 83 224 3.5 12.2 0.00 0.00 0.00 35 1015.6
20260904223737 83 220 0.0 11.3 0.00 0.00 0.00 36 1015.6
20260904223237 83 257 8.7 9.6 0.00 0.00 0.00 35 1015.7
20260904221726 82 245 8.7 12.2 0.00 0.00 0.00 35 1015.8
20260904221237 83 229 3.5 12.2 0.00 0.00 0.00 35 1015.7
20260904220237 83 227 10.4 12.2 0.00 0.00 0.00 34 1015.8
20260904215737 84 241 1.7 10.4 0.00 0.00 0.00 33 1016.1
20260904215237 83 238 9.6 10.4 0.00 0.00 0.00 33 1016.0
20260904214736 83 232 2.6 10.4 0.00 0.00 0.00 33 1016.0
20260904213737 84 221 2.6 12.2 0.00 0.00 0.00 32 1016.2
20260904212737 84 252 4.3 13.0 0.00 0.00 0.00 31 1016.4
20260904211736 85 217 5.2 12.2 0.00 0.00 0.00 29 1016.1
20260904211237 85 242 9.6 9.6 0.00 0.00 0.00 29 1016.2
20260904210736 86 241 2.6 9.6 0.00 0.00 0.00 29 1016.5
20260904210236 86 219 3.5 10.4 0.00 0.00 0.00 28 1016.6